User: anonymous   Login
Location: Peebles
(55.6412°N, 3.1714°W)
Time: 06:44:17
(UTC+00:00)
Language:

Cosmos 2123 Rocket - Orbit

View from above orbital plane
View from above orbital plane
View from above satellite
View from above satellite

Ground track
Ground track

The orbit data is extracted from the following two-line orbital elements,

1 21090U 91007B   21336.76109424 -.00000006  00000-0 -21794-4 0  9992
2 21090  82.9201 105.0221 0021247 156.6422 203.5705 13.76405155548140
Epoch (UTC): 02 December 2021 18:15:58
Eccentricity: 0.0021247
inclination: 82.9201°
perigee height: 961 km
apogee height: 992 km
right ascension of ascending node: 105.0221°
argument of perigee: 156.6422°
revolutions per day: 13.76405155
mean anomaly at epoch: 203.5705°
orbit number at epoch: 54814

The dashed part of the orbit path shows where the satellite is in the earth's shadow,  

DLR